Weather in Uglovka

Russia / Novgorod Oblast     58°12′50″N   33°31′03″E
temp.,
°C
wind,
m/s
gust,
m/s
humid.,
%
clouds,
%
prec.,
mm/h
press.,
hPa
HPBL,
m
31 july, sat
sat3100:00+14ssw368799 0.0 1002110
03:00+13s399527 0.6 1000184
06:00+14sw51285100 0.1 999747
09:00+14sw4128975 1.0 999937
12:00+20wsw6115860 0.2 10001843
15:00+23w7123712 0.3 10002707
18:00+21wsw6105884 0.0 10021373
21:00+17sw410836 0.2 1004327
1 august, sun
sun100:00+15sw4109810 0.1 1005294
03:00+14sw4109796 0.1 1006317
06:00+15ssw3893100 0.0 1006236
09:00+17s397998 0.0 1006396
12:00+17s4128998 0.4 1006593
15:00+20sw5107887 1.1 10051073
18:00+20ssw387087 0.3 1004310
21:00+18sw3973100 0.3 1005178
2 august, mon
mon200:00+16wsw31078100 0.0 1006256
03:00+16sw2682100 0.0 1007127
06:00+16sw128292 0.0 100775
09:00+21ssw236298 0.0 1006662
12:00+25ssw354199 0.0 10052075
15:00+18n3482100 0.4 100266
18:00+18ese2886100 0.6 999269
21:00+17wsw129992 5.6 99750
3 august, tue
tue300:00+15wnw51097100 0.4 998700
03:00+14w41098100 0.4 1000685
06:00+14wsw51197100 0.0 1002493
09:00+15w51087100 0.0 1003615
12:00+20wsw5852100 0.0 10041724
15:00+20wsw4751100 0.0 10051886
18:00+18wsw48766 0.7 1006811
21:00+14wsw35894 0.9 100897
4 august, wed
wed400:00+11w36924 0.0 1010115
03:00+10wsw38960 0.0 1011170
06:00+10wsw279548 0.0 1013201
09:00+13w2480100 0.1 1014224
12:00+16w246899 0.4 1015396
15:00+19w3343100 0.4 10161764
18:00+17wnw245399 0.0 1016489
21:00+13n117017 0.0 101710